Weather History for Torrington, WY

Change the Weather History Date:

Wednesday, December 19, 2012

  Actual Average Record
Temperature  
Mean Temperature 17 °F 26 °F  
Max Temperature 29 °F 39 °F 57 °F (2004)
Min Temperature 4 °F 14 °F -14 °F (1998)
Degree Days  
Heating Degree Days 48 39  
Month to date heating degree days 578 713  
Since 1 July heating degree days 1921 2296  
Moisture  
Dew Point 13 °F    
Average Humidity 69    
Maximum Humidity 96    
Minimum Humidity 42    
Precipitation  
Precipitation 0.04 in 0.02 in 0.05 in (2010)
Month to date precipitation 0.04 0.25  
Year to date precipitation 7.04 14.09  
Sea Level Pressure  
Sea Level Pressure 29.96 in    
Wind  
Wind Speed 10 mph (NNW)    
Max Wind Speed 20 mph    
Max Gust Speed 28 mph    
Visibility 6 miles    
Events Snow    
T = Trace of Precipitation, MM = Missing Value Source: NWS Daily Summary

Daily Weather History Graph

Daily Weather History Graph

Search for Another Location

Airport:

Trip Planner

Search our weather history database for the weather conditions in past years. The results will help you decide how hot, cold, wet, or windy it might be!

Date:

Astronomy

Dec. 19, 2012 Rise Set
Actual Time 7:20 AM MST 4:27 PM MST
Civil Twilight 6:48 AM MST 4:59 PM MST
Nautical Twilight 6:13 AM MST 5:34 PM MST
Astronomical Twilight 5:39 AM MST 6:08 PM MST
Moon 11:24 AM MST (12/19) No Moon Set
Length of Visible Light 10h 10m
Length of Day
9h 06m
Waxing Crescent, 45% of the Moon is Illuminated
Dec 19
Waxing Crescent
Dec 19
First Quarter
Dec 28
Full
Jan 4
Last Quarter
Jan 11
New

Hourly Weather History & Observations

Time (MST) Temp. Windchill Dew Point Humidity Pressure Visibility Wind Dir Wind Speed Gust Speed Precip Events Conditions
12:53 AM 26.1 °F 15.0 °F 16.0 °F 66% 29.82 in 10.0 mi North 12.7 mph - N/A   Overcast
1:50 AM 24.8 °F 15.3 °F 19.4 °F 80% 29.77 in 2.5 mi North 9.2 mph - 0.00 in Snow Light Snow
1:53 AM 24.1 °F 15.2 °F 19.0 °F 81% 29.83 in 2.0 mi North 8.1 mph - 0.00 in Snow Light Snow
2:37 AM 23.0 °F 13.9 °F 19.4 °F 86% 29.78 in 1.8 mi NNW 8.1 mph - 0.00 in Snow Light Snow
2:53 AM 23.0 °F 13.1 °F 19.9 °F 88% 29.85 in 2.0 mi NNW 9.2 mph - 0.00 in Snow Light Snow
3:06 AM 23.0 °F 14.7 °F 19.4 °F 86% 29.78 in 1.8 mi NNW 6.9 mph - 0.00 in Snow Light Snow
3:26 AM 23.0 °F 18.4 °F 21.2 °F 93% 29.78 in 1.2 mi North 3.5 mph - 0.01 in Snow Light Snow
3:53 AM 23.0 °F 18.4 °F 21.0 °F 92% 29.86 in 1.8 mi North 3.5 mph - 0.01 in Snow Light Snow
4:05 AM 21.2 °F 11.7 °F 19.4 °F 93% 29.79 in 1.8 mi North 8.1 mph - 0.01 in Snow Light Snow
4:20 AM 21.2 °F 10.1 °F 19.4 °F 93% 29.79 in 2.5 mi North 10.4 mph - 0.01 in Snow Light Snow
4:30 AM 21.2 °F 10.9 °F 19.4 °F 93% 29.79 in 3.0 mi North 9.2 mph - 0.01 in Snow Light Snow
4:39 AM 21.2 °F 10.9 °F 19.4 °F 93% 29.79 in 2.0 mi North 9.2 mph - 0.01 in Snow Light Snow
4:46 AM 21.2 °F 13.6 °F 19.4 °F 93% 29.80 in 1.8 mi North 5.8 mph - 0.01 in Snow Light Snow
4:53 AM 21.9 °F 13.4 °F 19.0 °F 89% 29.89 in 2.0 mi North 6.9 mph - 0.01 in Snow Light Snow
5:09 AM 21.2 °F 11.7 °F 19.4 °F 93% 29.81 in 1.5 mi North 8.1 mph - 0.00 in Snow Light Snow
5:53 AM 21.0 °F 12.4 °F 18.0 °F 88% 29.94 in 1.5 mi NNW 6.9 mph - 0.01 in Snow Light Snow
6:11 AM 21.2 °F 11.7 °F 17.6 °F 86% 29.85 in 2.5 mi North 8.1 mph - 0.01 in Snow Light Snow
6:28 AM 21.2 °F 12.6 °F 17.6 °F 86% 29.84 in 3.0 mi North 6.9 mph - 0.01 in Snow Light Snow
6:36 AM 21.2 °F 11.7 °F 17.6 °F 86% 29.84 in 5.0 mi North 8.1 mph - 0.01 in Snow Light Snow
6:53 AM 21.0 °F 12.4 °F 17.1 °F 85% 29.93 in 7.0 mi North 6.9 mph - 0.01 in Snow Light Snow
7:36 AM 21.2 °F 10.9 °F 15.8 °F 80% 29.89 in 2.5 mi North 9.2 mph - 0.00 in Snow Light Snow
7:53 AM 19.9 °F 10.1 °F 16.0 °F 85% 30.00 in 1.8 mi NNW 8.1 mph - 0.00 in Snow Light Snow
8:50 AM 21.2 °F 9.5 °F 15.8 °F 80% 29.90 in 3.0 mi North 11.5 mph - 0.00 in Snow Light Snow
8:51 AM 21.0 °F 9.3 °F 16.0 °F 81% 30.01 in 3.0 mi North 11.5 mph - 0.00 in Snow Light Snow
9:05 AM 21.2 °F 10.1 °F 15.8 °F 80% 29.91 in 4.0 mi North 10.4 mph 20.7 mph 0.00 in Snow Light Snow
9:53 AM 21.9 °F 12.5 °F 15.1 °F 75% 30.03 in 10.0 mi North 8.1 mph - 0.00 in   Overcast
10:53 AM 24.1 °F 15.2 °F 12.0 °F 60% 30.01 in 10.0 mi NW 8.1 mph - N/A   Overcast
11:53 AM 25.0 °F 13.6 °F 8.1 °F 49% 30.01 in 10.0 mi NNW 12.7 mph 19.6 mph N/A   Overcast
12:53 PM 25.0 °F 11.7 °F 8.1 °F 49% 30.01 in 10.0 mi NNW 17.3 mph 25.3 mph N/A   Mostly Cloudy
1:53 PM 26.1 °F 14.0 °F 7.0 °F 44% 30.03 in 10.0 mi NNW 15.0 mph 24.2 mph 0.00 in   Clear
2:53 PM 27.0 °F 14.3 °F 6.1 °F 41% 30.06 in 10.0 mi NNW 17.3 mph - N/A   Clear
3:53 PM 25.0 °F 12.6 °F 5.0 °F 43% 30.09 in 10.0 mi NNW 15.0 mph - N/A   Clear
4:53 PM 21.0 °F 8.1 °F 3.9 °F 48% 30.14 in 10.0 mi NW 13.8 mph - N/A   Clear
5:53 PM 14.0 °F 1.2 °F 1.0 °F 56% 30.19 in 10.0 mi NNW 10.4 mph - N/A   Clear
6:53 PM 15.1 °F 3.3 °F 1.0 °F 54% 30.21 in 10.0 mi NW 9.2 mph - N/A   Clear
7:53 PM 10.9 °F -1.8 °F -0.0 °F 61% 30.24 in 10.0 mi WNW 9.2 mph - N/A   Clear
8:53 PM 9.0 °F -0.9 °F -0.9 °F 64% 30.26 in 10.0 mi West 5.8 mph - N/A   Clear
9:53 PM 5.0 °F -6.9 °F -2.9 °F 70% 30.28 in 10.0 mi West 6.9 mph - N/A   Clear
10:53 PM 5.0 °F -5.6 °F -2.9 °F 70% 30.28 in 10.0 mi West 5.8 mph - N/A   Clear
11:53 PM 8.1 °F -0.5 °F -0.9 °F 67% 30.27 in 10.0 mi WNW 4.6 mph - N/A   Clear